Stündliche Wetter Aarschot

Heute, 28 Februar, Sonntag

Zeit Temperatur Niederschläge Wind Luftdruck Luftfeuchtigkeit
00:00 +3°C° 0 mm 3 m/S 775 mmHg 90%
01:00 +4°C° 0 mm 2 m/S 775 mmHg 91%
02:00 +3°C° 0 mm 2 m/S 775 mmHg 92%
03:00 +3°C° 0 mm 2 m/S 774 mmHg 93%
04:00 +3°C° 0 mm 2 m/S 774 mmHg 94%
05:00 +3°C° 0 mm 2 m/S 774 mmHg 94%
06:00 +2°C° 0 mm 3 m/S 774 mmHg 95%
07:00 +3°C° 0 mm 3 m/S 774 mmHg 90%
08:00 +4°C° 0 mm 3 m/S 774 mmHg 85%
09:00 +5°C° 0 mm 3 m/S 773 mmHg 80%
10:00 +6°C° 0 mm 4 m/S 773 mmHg 74%
11:00 +8°C° 0 mm 4 m/S 773 mmHg 67%
12:00 +10°C° 0 mm 4 m/S 773 mmHg 61%
13:00 +10°C° 0 mm 4 m/S 772 mmHg 60%
14:00 +11°C° 0 mm 4 m/S 772 mmHg 60%
15:00 +11°C° 0 mm 4 m/S 772 mmHg 59%
16:00 +10°C° 0 mm 4 m/S 772 mmHg 64%
17:00 +7°C° 0 mm 4 m/S 771 mmHg 70%
18:00 +7°C° 0 mm 3 m/S 771 mmHg 76%
19:00 +7°C° 0 mm 3 m/S 772 mmHg 76%
20:00 +5°C° 0 mm 3 m/S 772 mmHg 77%
21:00 +5°C° 0 mm 3 m/S 772 mmHg 78%
22:00 +4°C° 0 mm 3 m/S 772 mmHg 79%
23:00 +4°C° 0 mm 3 m/S 772 mmHg 81%

Morgen, 1 März, Montag

Zeit Temperatur Niederschläge Wind Luftdruck Luftfeuchtigkeit
00:00 +4°C° 0 mm 3 m/S 772 mmHg 83%
01:00 +3°C° 0 mm 3 m/S 771 mmHg 85%
02:00 +3°C° 0 mm 3 m/S 771 mmHg 86%
03:00 +3°C° 0 mm 3 m/S 771 mmHg 88%
04:00 +2°C° 0 mm 3 m/S 771 mmHg 89%
05:00 +2°C° 0 mm 3 m/S 771 mmHg 89%
06:00 +2°C° 0 mm 3 m/S 771 mmHg 89%
07:00 +3°C° 0 mm 3 m/S 771 mmHg 83%
08:00 +4°C° 0 mm 3 m/S 770 mmHg 77%
09:00 +6°C° 0 mm 4 m/S 770 mmHg 71%
10:00 +7°C° 0 mm 4 m/S 770 mmHg 65%
11:00 +10°C° 0 mm 4 m/S 770 mmHg 59%
12:00 +12°C° 0 mm 4 m/S 770 mmHg 53%
13:00 +12°C° 0 mm 4 m/S 769 mmHg 53%
14:00 +12°C° 0 mm 4 m/S 769 mmHg 53%
15:00 +13°C° 0 mm 4 m/S 769 mmHg 54%
16:00 +11°C° 0 mm 4 m/S 769 mmHg 58%
17:00 +10°C° 0 mm 4 m/S 769 mmHg 63%
18:00 +8°C° 0 mm 4 m/S 769 mmHg 68%
19:00 +8°C° 0 mm 3 m/S 769 mmHg 70%
20:00 +7°C° 0 mm 3 m/S 769 mmHg 72%
21:00 +7°C° 0 mm 3 m/S 769 mmHg 75%
22:00 +5°C° 0 mm 3 m/S 769 mmHg 76%
23:00 +6°C° 0 mm 2 m/S 769 mmHg 77%

übermorgen, 2 März, Dienstag

Zeit Temperatur Niederschläge Wind Luftdruck Luftfeuchtigkeit
00:00 +5°C° 0 mm 2 m/S 768 mmHg 78%
01:00 +5°C° 0 mm 2 m/S 768 mmHg 79%
02:00 +5°C° 0 mm 2 m/S 768 mmHg 80%
03:00 +5°C° 0 mm 2 m/S 768 mmHg 81%
04:00 +4°C° 0 mm 2 m/S 768 mmHg 82%
05:00 +4°C° 0 mm 2 m/S 768 mmHg 83%
06:00 +4°C° 0 mm 2 m/S 768 mmHg 84%
07:00 +5°C° 0 mm 2 m/S 768 mmHg 79%
08:00 +7°C° 0 mm 2 m/S 768 mmHg 73%
09:00 +8°C° 0 mm 2 m/S 768 mmHg 68%
10:00 +10°C° 0 mm 2 m/S 768 mmHg 63%
11:00 +13°C° 0 mm 2 m/S 768 mmHg 58%
12:00 +15°C° 0 mm 2 m/S 768 mmHg 53%
13:00 +15°C° 0 mm 1 m/S 768 mmHg 53%
14:00 +16°C° 0 mm 1 m/S 768 mmHg 52%
15:00 +18°C° 0 mm 1 m/S 767 mmHg 51%
16:00 +15°C° 0 mm 1 m/S 768 mmHg 58%
17:00 +13°C° 0 mm 1 m/S 768 mmHg 64%
18:00 +12°C° 0 mm 1 m/S 768 mmHg 71%
19:00 +11°C° 0 mm 1 m/S 768 mmHg 74%
20:00 +9°C° 0 mm 2 m/S 768 mmHg 78%
21:00 +9°C° 0 mm 2 m/S 768 mmHg 82%
22:00 +8°C° 0 mm 2 m/S 768 mmHg 83%
23:00 +8°C° 0 mm 2 m/S 768 mmHg 85%

3 März, Mittwoch

Zeit Temperatur Niederschläge Wind Luftdruck Luftfeuchtigkeit
00:00 +8°C° 0 mm 2 m/S 768 mmHg 87%
01:00 +7°C° 0 mm 2 m/S 768 mmHg 87%
02:00 +7°C° 0 mm 2 m/S 768 mmHg 88%
03:00 +7°C° 0 mm 2 m/S 768 mmHg 88%
04:00 +7°C° 0 mm 2 m/S 768 mmHg 88%
05:00 +7°C° 0 mm 2 m/S 768 mmHg 88%
06:00 +7°C° 0 mm 2 m/S 768 mmHg 88%
07:00 +8°C° 0 mm 2 m/S 768 mmHg 82%
08:00 +9°C° 0 mm 2 m/S 768 mmHg 77%
09:00 +10°C° 0 mm 2 m/S 767 mmHg 72%
10:00 +13°C° 0 mm 2 m/S 767 mmHg 67%
11:00 +14°C° 0 mm 2 m/S 767 mmHg 61%
12:00 +15°C° 0 mm 2 m/S 766 mmHg 56%
13:00 +15°C° 0 mm 2 m/S 766 mmHg 58%
14:00 +16°C° 0 mm 2 m/S 766 mmHg 59%
15:00 +16°C° 0 mm 3 m/S 765 mmHg 60%
16:00 +14°C° 0.4 mm 2 m/S 765 mmHg 70%
17:00 +13°C° 0.4 mm 2 m/S 765 mmHg 80%
18:00 +11°C° 0.4 mm 1 m/S 765 mmHg 90%
19:00 +10°C° 0.2 mm 2 m/S 764 mmHg 90%
20:00 +10°C° 0.2 mm 2 m/S 764 mmHg 91%
21:00 +10°C° 0.2 mm 2 m/S 764 mmHg 92%
22:00 +10°C° 0.9 mm 2 m/S 763 mmHg 93%
23:00 +9°C° 0.9 mm 2 m/S 763 mmHg 93%

4 März, Donnerstag

Zeit Temperatur Niederschläge Wind Luftdruck Luftfeuchtigkeit
00:00 +9°C° 0.9 mm 2 m/S 763 mmHg 94%
01:00 +9°C° 0.3 mm 2 m/S 762 mmHg 95%
02:00 +9°C° 0.3 mm 2 m/S 762 mmHg 95%
03:00 +9°C° 0.3 mm 2 m/S 761 mmHg 95%
04:00 +8°C° 0.2 mm 2 m/S 761 mmHg 95%
05:00 +8°C° 0.2 mm 2 m/S 761 mmHg 95%
06:00 +8°C° 0.2 mm 2 m/S 760 mmHg 95%
07:00 +8°C° 0.1 mm 2 m/S 760 mmHg 93%
08:00 +8°C° 0.1 mm 2 m/S 760 mmHg 92%
09:00 +9°C° 0.1 mm 2 m/S 760 mmHg 90%
10:00 +10°C° 0.2 mm 3 m/S 760 mmHg 86%
11:00 +10°C° 0.2 mm 3 m/S 760 mmHg 82%
12:00 +11°C° 0.2 mm 4 m/S 760 mmHg 77%
13:00 +11°C° 0.2 mm 4 m/S 760 mmHg 75%
14:00 +9°C° 0.2 mm 5 m/S 759 mmHg 73%
15:00 +9°C° 0.2 mm 5 m/S 759 mmHg 71%
16:00 +8°C° 0 mm 4 m/S 760 mmHg 74%
17:00 +6°C° 0 mm 4 m/S 760 mmHg 77%
18:00 +5°C° 0 mm 4 m/S 760 mmHg 80%
19:00 +4°C° 0 mm 4 m/S 760 mmHg 81%
20:00 +4°C° 0 mm 3 m/S 761 mmHg 83%
21:00 +3°C° 0 mm 3 m/S 761 mmHg 85%
22:00 +3°C° 0 mm 3 m/S 761 mmHg 81%
23:00 +4°C° 0 mm 3 m/S 761 mmHg 77%

5 März, Freitag

Zeit Temperatur Niederschläge Wind Luftdruck Luftfeuchtigkeit
00:00 +4°C° 0 mm 3 m/S 761 mmHg 73%
01:00 +3°C° 0 mm 3 m/S 761 mmHg 73%
02:00 +3°C° 0 mm 3 m/S 762 mmHg 72%
03:00 +3°C° 0 mm 3 m/S 762 mmHg 72%
04:00 +2°C° 0 mm 3 m/S 762 mmHg 73%
05:00 +2°C° 0 mm 3 m/S 762 mmHg 73%
06:00 +2°C° 0 mm 3 m/S 762 mmHg 74%
07:00 +1°C° 0 mm 4 m/S 763 mmHg 71%
08:00 +1°C° 0 mm 4 m/S 763 mmHg 68%
09:00 +2°C° 0 mm 5 m/S 764 mmHg 65%
10:00 +2°C° 0 mm 5 m/S 764 mmHg 63%
11:00 +3°C° 0 mm 5 m/S 764 mmHg 60%
12:00 +5°C° 0 mm 5 m/S 764 mmHg 58%
13:00 +5°C° 0 mm 5 m/S 765 mmHg 55%
14:00 +5°C° 0 mm 5 m/S 765 mmHg 53%
15:00 +5°C° 0 mm 5 m/S 765 mmHg 50%
16:00 +4°C° 0 mm 4 m/S 765 mmHg 53%
17:00 +3°C° 0 mm 4 m/S 765 mmHg 56%
18:00 +2°C° 0 mm 3 m/S 766 mmHg 59%
19:00 +1°C° 0 mm 3 m/S 766 mmHg 59%
20:00 +1°C° 0 mm 3 m/S 767 mmHg 60%
21:00 0°C° 0 mm 3 m/S 768 mmHg 61%
22:00 0°C° 0 mm 3 m/S 768 mmHg 62%
23:00 -1°C° 0 mm 3 m/S 768 mmHg 63%
Mehr zeigen

Wir brauchen deine Erlaubnis

Meteoprog und unser Service Anbieter werden persönliche Daten aufbewahren, so wie Cookies, Geräte Bezeichnung oder ähnliche Technologien von deinem Gerät und Prozess, so wie Persönliche Daten Inhalte und Werbungen, genauso wie social Media und den Verkehr zu analysieren.

  • Aufbewahrung und/oder Zugang zu deiner Geräte Informationen.

    Cookies, Geräte Bezeichnung oder andere Informationen, können aufbewahrt oder Zugang zu deinem Gerät erhalten, für den Grund, der oben angegeben wird.

  • Personalisierte Werbung und Inhalte, Messungen, Einblick in das Publikum und Produkt Entwicklung.

    Werbungen und Inhalte können personalisiert werden, basierend auf ein Profil. Mehr Daten können besser personalisierte Werbungen und Inhalte hinzufügen. Werbung und Inhalte können gezeigt und gemessen werden. Einblicke über das Publikum, welche die Werbung gesehen haben und den Inhalt, können abgeleitet werden. So wie Daten können genutzt werden, um es zu verbessern oder die Benutzer Erfahrung zu verbessern das System und die Software.

Wenn du “Ich stimme zu” klickst, erlaubst du uns, die Cookies zu benutzen die Geräte Bezeichnung, den Web oder ähnliche Technologien zu benutzen. Deine Settings, können in deinem Gerät bei deinem Browser geändert werden.

Für den bestimmten Zweck, berechtigten Interessen beruhen darauf, mehr als auf den Inhalt. Du kannst mehr darüber in unseren Privaten und Cookie Politik lesen.